Weather History for KHSE - April, 2012

Change the Weather History Date:

Sunday, April 1, 2012

  Actual Average Record
Temperature  
Mean Temperature 56 °F 56 °F  
Max Temperature 61 °F 63 °F 79 °F (1986)
Min Temperature 50 °F 49 °F 29 °F (1971)
Degree Days  
Heating Degree Days 9 10  
Month to date heating degree days 9 10  
Since 1 July heating degree days 1569 2353  
Cooling Degree Days 0 0  
Month to date cooling degree days 0 0  
Year to date cooling degree days 28 3  
Growing Degree Days 6 (Base 50)    
Moisture  
Dew Point 49 °F    
Average Humidity 73    
Maximum Humidity 93    
Minimum Humidity 53    
Precipitation  
Precipitation 0.12 in 0.14 in 1.81 in (1973)
Month to date precipitation 0.12 0.14  
Year to date precipitation 12.71 14.17  
Snow  
Snow 0.00 in - - ()
Month to date snowfall 0.0  
Since 1 July snowfall T  
Snow Depth 0.00 in    
Sea Level Pressure  
Sea Level Pressure 29.81 in    
Wind  
Wind Speed 9 mph (NNE)    
Max Wind Speed 16 mph    
Max Gust Speed 26 mph    
Visibility 9 miles    
Events Rain    
T = Trace of Precipitation, MM = Missing Value Source: NWS Daily Summary

Daily Weather History Graph

Daily Weather History Graph

Search for Another Location

Airport or City:

Trip Planner

Search our weather history database for the weather conditions in past years. The results will help you decide how hot, cold, wet, or windy it might be!

Date:

Astronomy

Apr. 01, 2012 Rise Set
Actual Time 6:48 AM EDT 7:24 PM EDT
Civil Twilight 6:23 AM EDT 7:49 PM EDT
Nautical Twilight 5:52 AM EDT 8:20 PM EDT
Astronomical Twilight 5:22 AM EDT 8:50 PM EDT
Moon 2:03 PM EDT (4/1) 3:11 AM EDT (4/1)
Length of Visible Light 13h 26m
Length of Day
12h 35m
Waxing Gibbous, 69% of the Moon is Illuminated
Apr 1
Waxing Gibbous
Apr 6
Full
Apr 13
Last Quarter
Apr 21
New
Apr 29
First Quarter

Hourly Weather History & Observations

Time (EDT) Temp. Dew Point Humidity Pressure Visibility Wind Dir Wind Speed Gust Speed Precip Events Conditions
12:09 AM 57.2 °F 51.8 °F 82% 29.79 in 4.0 mi NE 12.7 mph 21.9 mph 0.01 in Rain Rain
12:24 AM 55.4 °F 51.8 °F 88% 29.78 in 4.0 mi NNE 9.2 mph 16.1 mph 0.05 in Rain Rain
12:51 AM 55.9 °F 52.0 °F 87% 29.78 in 6.0 mi NNE 12.7 mph 18.4 mph 0.12 in Rain Light Rain
1:10 AM 55.4 °F 51.8 °F 88% 29.77 in 10.0 mi NE 11.5 mph 23.0 mph 0.01 in   Overcast
1:27 AM 55.4 °F 51.8 °F 88% 29.78 in 10.0 mi NNE 11.5 mph 21.9 mph 0.01 in Rain Light Rain
1:51 AM 55.0 °F 51.1 °F 86% 29.78 in 10.0 mi NNE 12.7 mph 23.0 mph 0.01 in   Overcast
2:51 AM 55.0 °F 51.1 °F 86% 29.81 in 4.0 mi NNE 10.4 mph 21.9 mph 0.03 in Rain Rain
3:02 AM 55.4 °F 51.8 °F 88% 29.80 in 5.0 mi North 13.8 mph 24.2 mph 0.03 in Rain Rain
3:36 AM 53.6 °F 51.8 °F 94% 29.76 in 10.0 mi NE 8.1 mph 17.3 mph 0.06 in Rain Light Rain
3:51 AM 54.0 °F 51.1 °F 90% 29.75 in 8.0 mi NE 10.4 mph 21.9 mph 0.06 in Rain Light Rain
4:11 AM 53.6 °F 51.8 °F 94% 29.79 in 7.0 mi Variable 6.9 mph 20.7 mph 0.03 in Rain Light Rain
4:51 AM 54.0 °F 51.1 °F 90% 29.80 in 10.0 mi NNE 10.4 mph 24.2 mph 0.03 in   Overcast
5:41 AM 53.6 °F 51.8 °F 94% 29.78 in 10.0 mi NE 10.4 mph 20.7 mph N/A   Overcast
5:51 AM 54.0 °F 50.0 °F 86% 29.78 in 10.0 mi NNE 11.5 mph 21.9 mph N/A   Overcast
6:51 AM 54.0 °F 50.0 °F 86% 29.81 in 10.0 mi NNE 13.8 mph 24.2 mph N/A   Mostly Cloudy
7:48 AM 53.6 °F 50.0 °F 88% 29.83 in 10.0 mi NNE 11.5 mph 23.0 mph N/A   Overcast
7:51 AM 54.0 °F 50.0 °F 86% 29.83 in 10.0 mi NNE 11.5 mph 23.0 mph N/A   Overcast
7:59 AM 53.6 °F 50.0 °F 88% 29.83 in 10.0 mi NNE 11.5 mph 23.0 mph N/A   Overcast
8:08 AM 53.6 °F 50.0 °F 88% 29.84 in 10.0 mi NNE 10.4 mph 21.9 mph N/A   Overcast
8:43 AM 53.6 °F 50.0 °F 88% 29.85 in 10.0 mi NNE 13.8 mph 23.0 mph N/A   Overcast
8:51 AM 54.0 °F 48.9 °F 83% 29.86 in 10.0 mi NNE 12.7 mph 23.0 mph N/A   Overcast
9:51 AM 55.9 °F 50.0 °F 80% 29.87 in 10.0 mi NNE 12.7 mph 23.0 mph N/A   Overcast
10:51 AM 57.9 °F 48.9 °F 72% 29.88 in 10.0 mi NNE 8.1 mph 18.4 mph N/A   Mostly Cloudy
11:38 AM 57.2 °F 48.2 °F 72% 29.89 in 10.0 mi North 11.5 mph 20.7 mph N/A   Scattered Clouds
11:51 AM 59.0 °F 46.9 °F 64% 29.88 in 10.0 mi North 9.2 mph 19.6 mph N/A   Partly Cloudy
12:22 PM 59.0 °F 46.4 °F 63% 29.88 in 10.0 mi North 6.9 mph 17.3 mph N/A   Mostly Cloudy
12:51 PM 59.0 °F 46.9 °F 64% 29.87 in 10.0 mi North 9.2 mph - N/A   Overcast
1:51 PM 57.9 °F 46.0 °F 65% 29.84 in 10.0 mi NNE 8.1 mph 18.4 mph N/A   Mostly Cloudy
2:51 PM 59.0 °F 46.0 °F 62% 29.83 in 10.0 mi North 5.8 mph 17.3 mph N/A   Mostly Cloudy
3:51 PM 60.1 °F 46.0 °F 60% 29.83 in 10.0 mi Variable 5.8 mph 16.1 mph N/A   Overcast
4:05 PM 59.0 °F 44.6 °F 59% 29.82 in 10.0 mi NNE 10.4 mph - N/A   Mostly Cloudy
4:51 PM 60.1 °F 44.1 °F 55% 29.82 in 10.0 mi NE 11.5 mph 16.1 mph N/A   Clear
5:51 PM 59.0 °F 43.0 °F 55% 29.79 in 10.0 mi ENE 4.6 mph - N/A   Clear
6:51 PM 57.0 °F 42.1 °F 57% 29.80 in 10.0 mi Calm Calm - N/A   Clear
7:51 PM 52.0 °F 42.1 °F 69% 29.80 in 10.0 mi ENE 3.5 mph - N/A   Clear
8:51 PM 53.1 °F 44.1 °F 71% 29.80 in 10.0 mi South 4.6 mph - N/A   Clear
9:51 PM 55.0 °F 46.0 °F 72% 29.79 in 10.0 mi SSW 9.2 mph - N/A   Clear
10:51 PM 55.9 °F 48.9 °F 77% 29.76 in 10.0 mi SSW 8.1 mph - N/A   Clear
11:51 PM 57.9 °F 53.1 °F 84% 29.73 in 10.0 mi SW 10.4 mph - N/A   Clear